This is the latest recevied weather packets stored in our database for station/object WD7CGF. If no packets are shown the sender has not sent any weather packets the latest 10 day(s).
| Time | Temp. | Humidity | Pressure | Rain* | Wind** | Luminosity | Snow |
|---|---|---|---|---|---|---|---|
| 1777316918 | 18.89° C | 32% | 1011.2 hPa | 0 mm | - | - | - |
| 1777316306 | 18.89° C | 34% | 1011.2 hPa | 0 mm | - | - | - |
| 1777315722 | 18.89° C | 36% | 1011.2 hPa | 0 mm | - | - | - |
| 1777315109 | 18.89° C | 38% | 1011.2 hPa | 0 mm | - | - | - |
| 1777314517 | 18.33° C | 37% | 1011.2 hPa | 0 mm | - | - | - |
| 1777313908 | 18.33° C | 36% | 1011.2 hPa | 0 mm | - | - | - |
| 1777313318 | 18.33° C | 41% | 1011.3 hPa | 0 mm | - | - | - |
| 1777312726 | 17.78° C | 38% | 1011.5 hPa | 0 mm | - | - | - |
| 1777312110 | 17.78° C | 40% | 1011.5 hPa | 0 mm | - | - | - |
| 1777311518 | 17.22° C | 44% | 1011.7 hPa | 0 mm | - | - | - |
| 1777310922 | 16.67° C | 46% | 1011.9 hPa | 0 mm | - | - | - |
| 1777310311 | 16.11° C | 51% | 1011.9 hPa | 0 mm | - | - | - |
| 1777309716 | 15.56° C | 48% | 1011.8 hPa | 0 mm | - | - | - |
| 1777309121 | 15° C | 53% | 1012.1 hPa | 0 mm | - | - | - |
| 1777308509 | 14.44° C | 53% | 1012.1 hPa | 0 mm | - | - | - |
| 1777307916 | 13.89° C | 56% | 1012.3 hPa | 0 mm | - | - | - |
| 1777307326 | 13.33° C | 55% | 1012.4 hPa | 0 mm | - | - | - |
| 1777306715 | 13.33° C | 55% | 1012.4 hPa | 0 mm | - | - | - |
| 1777306122 | 12.78° C | 55% | 1012.3 hPa | 0 mm | - | - | - |
| 1777305519 | 12.22° C | 57% | 1012.4 hPa | 0 mm | - | - | - |
| 1777304918 | 11.11° C | 59% | 1012.4 hPa | 0 mm | - | - | - |
| 1777304319 | 10.56° C | 59% | 1012.5 hPa | 0 mm | - | - | - |
| 1777303710 | 10° C | 60% | 1012.6 hPa | 0 mm | - | - | - |
| 1777303121 | 9.44° C | 62% | 1012.6 hPa | 0 mm | - | - | - |
| 1777302508 | 8.33° C | 62% | 1012.5 hPa | 0 mm | - | - | - |
* Rain since midnight (hover to see other rain measurements)
** Current wind speed in m/s (hover to see current wind gust speed)